Location: Unspecified
(0.0000°N, 0.0000°E)
Time: 02:20:47
(UTC+00:00)

Vanguard 1 - Pass Details

Date: 15 December 2018
Orbit: 650 x 3833 km, 34.3° (Epoch: 16 January)

Event Time Altitude Azimuth Distance (km) Brightness Sun altitude
Rises 18:55:14 0° 255° (WSW) 7,819 16.5 -13.7°
Reaches altitude 10° 19:03:20 10° 240° (WSW) 6,936 15.7 -15.6°
Maximum altitude 19:18:35 21° 199° (SSW) 5,766 14.4 -19.1°
Drops below altitude 10° 19:31:36 10° 157° (SSE) 5,822 14.0 -22.0°
Sets 19:37:31 0° 140° (SE) 6,296 14.0 -23.3°
